KC4LW Weather Reports


time (UTC)temp
C
wind
direction
speed
KPH
gust
KPH
rain 1hr
cm
rain 24hr
cm
rain mn
cm
humidity
%
barometer
mb
20260510100055 21 0 0.0 0.0 0.03 0.71 0.10 100 1013.3
20260510094553 21 0 0.0 1.6 0.03 0.71 0.10 99 1013.3
20260510093053 21 0 0.0 0.0 0.00 0.69 0.08 100 1013.0
20260510091556 21 0 0.0 1.6 0.00 0.69 0.08 99 1012.8
20260510090055 21 0 0.0 1.6 0.00 0.69 0.08 100 1012.4
20260510084552 21 0 0.0 0.0 0.00 0.69 0.08 99 1012.4
20260510083053 21 0 0.0 1.6 0.00 0.69 0.08 99 1012.3
20260510081557 21 284 0.0 1.6 0.00 0.69 0.08 99 1012.6
20260510080050 21 360 0.0 1.6 0.03 0.69 0.08 99 1012.8
20260510074602 21 0 0.0 0.0 0.03 0.69 0.08 99 1012.4
20260510073100 21 0 0.0 0.0 0.03 0.69 0.08 99 1012.2
20260510071552 21 0 0.0 0.0 0.05 0.69 0.08 99 1012.2
20260510070052 21 0 0.0 0.0 0.03 0.66 0.05 99 1012.1
20260510064555 21 0 0.0 0.0 0.03 0.66 0.05 99 1012.3
20260510063102 21 0 0.0 0.0 0.03 0.66 0.05 99 1012.3
20260510061603 21 0 0.0 0.0 0.00 0.64 0.03 99 1012.5
20260510060054 21 0 0.0 0.0 0.00 0.64 0.03 99 1012.9
20260510054600 21 0 0.0 1.6 0.03 0.64 0.03 99 1013.1
20260510053055 21 0 0.0 1.6 0.03 0.64 0.03 99 1013.3
20260510051554 21 0 0.0 3.2 0.03 0.64 0.03 99 1013.7
20260510050055 21 0 0.0 0.0 0.03 0.64 0.03 99 1014.0
20260510044553 21 0 0.0 0.0 0.00 0.74 0.00 99 1013.7
20260510043051 21 0 0.0 0.0 0.00 0.74 0.00 99 1013.7
20260510041620 21 0 0.0 0.0 0.00 0.74 0.00 99 1013.7
20260510040100 21 0 0.0 0.0 0.00 0.74 0.00 99 1013.8
20260510034604 21 0 0.0 0.0 0.00 1.09 0.74 99 1013.8
20260510033116 21 0 0.0 1.6 0.00 1.09 0.74 99 1014.0
20260510031556 21 0 0.0 1.6 0.00 1.09 0.74 99 1013.9
20260510030056 21 0 0.0 1.6 0.00 1.09 0.74 99 1013.9
20260510024610 21 360 0.0 3.2 0.00 1.09 0.74 99 1013.4
20260510023100 21 0 0.0 1.6 0.00 1.09 0.74 98 1013.2
20260510021602 21 0 0.0 1.6 0.00 1.09 0.74 98 1013.0
20260510020056 21 0 0.0 1.6 0.03 1.09 0.74 98 1012.7
20260510014612 21 0 0.0 3.2 0.03 1.09 0.74 98 1012.5
20260510013102 21 0 0.0 4.8 0.03 1.09 0.74 98 1012.8
20260510011553 21 0 0.0 1.6 0.03 1.09 0.74 98 1012.1
20260510010053 21 0 0.0 1.6 0.00 1.07 0.71 98 1012.2
20260510004600 21 0 0.0 1.6 0.00 1.07 0.71 98 1012.5
20260510003052 21 0 0.0 3.2 0.00 1.07 0.71 98 1012.6
20260510001552 21 0 0.0 1.6 0.00 1.07 0.71 98 1012.5
20260510000056 21 0 0.0 1.6 0.00 1.07 0.71 98 1012.5
20260509234554 22 0 0.0 0.0 0.00 1.07 0.71 97 1012.3
20260509233053 22 0 0.0 1.6 0.00 1.07 0.71 97 1012.3
20260509231604 22 0 0.0 1.6 0.00 1.07 0.71 97 1012.2
20260509230055 22 0 0.0 4.8 0.00 1.07 0.71 97 1012.3
20260509224552 22 0 0.0 3.2 0.00 1.07 0.71 97 1012.3
20260509223056 22 0 0.0 3.2 0.00 1.07 0.71 97 1012.4
20260509221553 22 0 0.0 8.0 0.00 1.07 0.71 97 1012.1
20260509220059 22 0 0.0 3.2 0.00 1.07 0.71 97 1012.3
20260509214557 22 0 1.6 4.8 0.05 1.07 0.71 96 1012.2
20260509213055 22 19 0.0 3.2 0.10 1.07 0.71 96 1012.1
20260509211558 22 0 1.6 11.3 0.15 1.07 0.71 96 1012.1
20260509210054 23 0 0.0 1.6 0.15 1.07 0.71 96 1011.8
20260509204553 23 0 0.0 3.2 0.10 1.02 0.66 96 1011.8
20260509203054 23 279 0.0 4.8 0.15 0.97 0.61 96 1011.8
20260509201552 23 0 0.0 1.6 0.30 0.91 0.56 95 1011.7
20260509200056 23 0 0.0 3.2 0.41 0.91 0.56 94 1011.6
20260509194553 24 280 0.0 1.6 0.41 0.91 0.56 93 1011.7
20260509193055 24 0 0.0 3.2 0.30 0.81 0.46 91 1011.8
20260509191553 25 0 0.0 1.6 0.08 0.58 0.23 89 1011.8
20260509190054 25 0 0.0 4.8 0.00 0.51 0.15 84 1011.6
20260509184549 26 78 1.6 6.4 0.00 0.51 0.15 82 1011.5
20260509183052 26 250 0.0 9.7 0.00 0.51 0.15 82 1011.8
20260509181552 26 0 0.0 6.4 0.00 0.51 0.15 83 1011.7
20260509180054 26 85 1.6 6.4 0.00 0.51 0.15 83 1011.9
20260509174555 26 0 0.0 4.8 0.00 0.51 0.15 83 1012.2
20260509173116 26 59 1.6 3.2 0.00 0.51 0.15 83 1012.2
20260509171553 26 276 1.6 4.8 0.00 0.51 0.15 85 1012.3
20260509164559 25 222 0.0 4.8 0.00 0.51 0.15 85 1012.3
20260509163059 25 11 1.6 4.8 0.00 0.51 0.15 84 1012.3
20260509161554 25 0 1.6 6.4 0.00 0.51 0.15 85 1012.8
20260509160051 25 271 0.0 3.2 0.00 0.51 0.15 86 1012.7
20260509154551 24 0 0.0 3.2 0.00 0.51 0.15 87 1012.6
20260509153054 25 348 1.6 4.8 0.00 0.51 0.15 85 1012.7
20260509151616 25 0 0.0 4.8 0.00 0.51 0.15 86 1013.0
20260509150054 24 0 0.0 4.8 0.00 0.51 0.15 88 1012.9
20260509144552 23 288 0.0 3.2 0.00 0.51 0.15 89 1013.0
20260509143103 23 0 0.0 4.8 0.00 0.51 0.15 91 1013.1
20260509141555 23 0 0.0 3.2 0.00 0.51 0.15 92 1012.6
20260509140052 22 280 3.2 6.4 0.00 0.51 0.15 94 1012.9
20260509134555 22 299 1.6 8.0 0.00 0.51 0.15 95 1012.9
20260509133054 22 266 1.6 4.8 0.00 0.51 0.15 96 1012.7
20260509131559 22 0 0.0 3.2 0.00 0.51 0.15 97 1012.4
20260509130126 21 0 1.6 4.8 0.00 0.51 0.15 97 1012.5
20260509124555 21 240 1.6 4.8 0.00 0.51 0.15 98 1012.2
20260509123120 21 0 1.6 4.8 0.00 0.51 0.15 98 1012.4
20260509121555 21 281 1.6 4.8 0.00 0.51 0.15 98 1012.2
20260509120053 21 311 1.6 4.8 0.00 0.51 0.15 98 1012.1
20260509114624 20 283 0.0 4.8 0.03 0.51 0.15 98 1011.9
20260509113112 20 0 3.2 8.0 0.03 0.51 0.15 98 1011.4
20260509111556 20 188 1.6 8.0 0.03 0.51 0.15 98 1011.2
20260509104548 20 0 0.0 4.8 0.00 0.48 0.13 98 1010.2
20260509103107 19 164 0.0 3.2 0.00 0.48 0.13 98 1010.5
20260509101602 19 0 0.0 3.2 0.00 0.48 0.13 98 1010.4